Regional Weather Roundup
Issued by NWS Tiyan, Guam

Home | Current Version | Previous Version | Text Only | Print | Product List | Glossary On
Versions: 1 2 3 4 5 6 7 8 9 10 11 12 13 14 15 16 17 18 19 20 21 22 23 24 25 26 27 28 29 30 31 32 33 34 35 36 37 38 39 40 41 42 43 44 45 46 47
000
ASGM40 PGUM 260312
RWRGUM
WEATHER ROUNDUP FOR THE MARIANAS
NATIONAL WEATHER SERVICE TIYAN GU
100 PM CHST FRI DEC 26 2014

GUZ001>004-260400-
MARIANA ISLANDS-

CITY           SKY/WX    TMP DP  RH WIND       PRES   REMARKS
GUAM AIRPORT   PTSUNNY   82  79  89 E13       29.82F HX  93
ANDERSEN AFB   PTSUNNY   81  77  89 E16G24    29.82F
ROTA AIRPORT   PTSUNNY   82  75  78 E20       29.84F
TINIAN AP      PTSUNNY   84  72  65 E15       29.83F
SAIPAN AP      SUNNY     86  70  58 E17       29.83F HX  90

$$



USA.gov is the U.S. government's official web portal to all federal, state and local government web resources and services.